Weather History for Wheaton NDB, MN

Change the Weather History Date:

Saturday, August 17, 2013

  Actual Average Record
Temperature  
Mean Temperature 70 °F -  
Max Temperature 84 °F 84 °F 103 °F (1988)
Min Temperature 57 °F 59 °F 44 °F (2010)
Cooling Degree Days 6    
Growing Degree Days 20 (Base 50)    
Moisture  
Dew Point 64 °F    
Average Humidity 77    
Maximum Humidity 100    
Minimum Humidity 55    
Precipitation  
Precipitation 0.00 in - - ()
Sea Level Pressure  
Sea Level Pressure 30.08 in    
Wind  
Wind Speed 9 mph (SSE)    
Max Wind Speed 15 mph    
Max Gust Speed 23 mph    
Visibility 9 miles    
Events      
Averages and records for this station are not official NWS values.
T = Trace of Precipitation, MM = Missing Value Source: NWS Daily Summary

Daily Weather History Graph

Daily Weather History Graph

Search for Another Location

Airport:

Trip Planner

Search our weather history database for the weather conditions in past years. The results will help you decide how hot, cold, wet, or windy it might be!

Date:

Astronomy

Aug. 17, 2013 Rise Set
Actual Time 6:28 AM CDT 8:30 PM CDT
Civil Twilight 5:56 AM CDT 9:02 PM CDT
Nautical Twilight 5:16 AM CDT 9:42 PM CDT
Astronomical Twilight 4:33 AM CDT 10:25 PM CDT
Moon 5:52 PM CDT (8/17) 2:27 AM CDT (8/17)
Length of Visible Light 15h 05m
Length of Day
14h 01m
Waxing Gibbous, 84% of the Moon is Illuminated
Aug 17
Waxing Gibbous
Aug 20
Full
Aug 28
Last Quarter
Sep 5
New
Sep 12
First Quarter

Hourly Weather History & Observations

Time (CDT) Temp. Heat Index Dew Point Humidity Pressure Visibility Wind Dir Wind Speed Gust Speed Precip Events Conditions
12:14 AM 64.4 °F - 60.8 °F 88% 30.15 in 10.0 mi SSE 5.8 mph - N/A   Clear
12:34 AM 64.4 °F - 60.8 °F 88% 30.15 in 10.0 mi SSE 6.9 mph - N/A   Clear
12:54 AM 64.4 °F - 60.8 °F 88% 30.15 in 10.0 mi SSE 6.9 mph - N/A   Clear
1:15 AM 62.6 °F - 60.8 °F 94% 30.15 in 10.0 mi SSE 5.8 mph - N/A   Clear
1:34 AM 62.6 °F - 60.8 °F 94% 30.14 in 10.0 mi SSE 6.9 mph - N/A   Clear
1:54 AM 62.6 °F - 60.8 °F 94% 30.14 in 10.0 mi SE 6.9 mph - N/A   Clear
2:14 AM 60.8 °F - 59.0 °F 94% 30.13 in 7.0 mi SSE 6.9 mph - N/A   Clear
2:34 AM 60.8 °F - 59.0 °F 94% 30.13 in 7.0 mi SE 6.9 mph - N/A   Clear
2:54 AM 60.8 °F - 59.0 °F 94% 30.13 in 7.0 mi SSE 6.9 mph - N/A   Clear
3:14 AM 60.8 °F - 59.0 °F 94% 30.13 in 7.0 mi SSE 6.9 mph - N/A   Clear
3:34 AM 60.8 °F - 59.0 °F 94% 30.13 in 7.0 mi SSE 6.9 mph - N/A   Clear
3:54 AM 60.8 °F - 57.2 °F 88% 30.13 in 7.0 mi SSE 6.9 mph - N/A   Clear
4:14 AM 59.0 °F - 57.2 °F 94% 30.13 in 7.0 mi SE 6.9 mph - N/A   Clear
4:35 AM 59.0 °F - 57.2 °F 94% 30.13 in 7.0 mi SE 6.9 mph - N/A   Clear
4:54 AM 59.0 °F - 57.2 °F 94% 30.13 in 7.0 mi SE 5.8 mph - N/A   Clear
5:15 AM 57.2 °F - 57.2 °F 100% 30.13 in 5.0 mi SE 4.6 mph - N/A   Clear
5:34 AM 57.2 °F - 55.4 °F 94% 30.13 in 5.0 mi SE 4.6 mph - N/A   Clear
5:55 AM 57.2 °F - 57.2 °F 100% 30.12 in 5.0 mi SE 8.1 mph - N/A   Clear
6:14 AM 57.2 °F - 57.2 °F 100% 30.12 in 5.0 mi SE 6.9 mph - N/A   Clear
6:34 AM 57.2 °F - 57.2 °F 100% 30.12 in 5.0 mi SE 8.1 mph - N/A   Scattered Clouds
6:54 AM 59.0 °F - 57.2 °F 94% 30.12 in 7.0 mi SE 9.2 mph - N/A   Scattered Clouds
7:15 AM 60.8 °F - 59.0 °F 94% 30.12 in 7.0 mi SE 9.2 mph - N/A   Clear
7:34 AM 62.6 °F - 60.8 °F 94% 30.12 in 7.0 mi SSE 8.1 mph - N/A   Scattered Clouds
7:54 AM 62.6 °F - 60.8 °F 94% 30.12 in 7.0 mi SSE 6.9 mph - N/A   Scattered Clouds
8:15 AM 64.4 °F - 60.8 °F 88% 30.12 in 10.0 mi SSE 8.1 mph - N/A   Clear
8:35 AM 66.2 °F - 62.6 °F 88% 30.12 in 10.0 mi SSE 8.1 mph - N/A   Clear
8:55 AM 66.2 °F - 62.6 °F 88% 30.12 in 10.0 mi SSE 8.1 mph - N/A   Clear
9:15 AM 69.8 °F - 62.6 °F 78% 30.12 in 10.0 mi South 9.2 mph - N/A   Clear
9:35 AM 69.8 °F - 64.4 °F 83% 30.12 in 10.0 mi SSE 10.4 mph - N/A   Clear
9:55 AM 71.6 °F - 64.4 °F 78% 30.11 in 10.0 mi SSE 8.1 mph 17.3 mph N/A   Clear
10:14 AM 73.4 °F - 64.4 °F 73% 30.10 in 10.0 mi SSE 11.5 mph 16.1 mph N/A   Clear
10:34 AM 73.4 °F - 64.4 °F 73% 30.10 in 10.0 mi SSE 10.4 mph 19.6 mph N/A   Clear
10:55 AM 75.2 °F - 64.4 °F 69% 30.10 in 10.0 mi SSE 12.7 mph 18.4 mph N/A   Clear
11:14 AM 75.2 °F - 64.4 °F 69% 30.10 in 10.0 mi South 13.8 mph 19.6 mph N/A   Clear
11:35 AM 75.2 °F - 66.2 °F 73% 30.10 in 10.0 mi South 10.4 mph 19.6 mph N/A   Clear
11:55 AM 77.0 °F - 66.2 °F 69% 30.10 in 10.0 mi SSE 11.5 mph - N/A   Clear
12:15 PM 77.0 °F - 66.2 °F 69% 30.09 in 10.0 mi South 11.5 mph 17.3 mph N/A   Clear
12:34 PM 78.8 °F - 66.2 °F 65% 30.09 in 10.0 mi SSE 12.7 mph 19.6 mph N/A   Clear
12:54 PM 80.6 °F 83.2 °F 68.0 °F 65% 30.09 in 10.0 mi South 12.7 mph 18.4 mph N/A   Clear
1:14 PM 80.6 °F 82.7 °F 66.2 °F 61% 30.08 in 10.0 mi South 11.5 mph 17.3 mph N/A   Scattered Clouds
1:35 PM 82.4 °F 86.3 °F 69.8 °F 66% 30.07 in 10.0 mi South 10.4 mph - N/A   Clear
1:54 PM 80.6 °F 83.2 °F 68.0 °F 65% 30.07 in 10.0 mi SSE 10.4 mph 20.7 mph N/A   Scattered Clouds
2:14 PM 82.4 °F 86.3 °F 69.8 °F 66% 30.06 in 10.0 mi South 12.7 mph 17.3 mph N/A   Scattered Clouds
2:35 PM 82.4 °F 86.3 °F 69.8 °F 66% 30.05 in 10.0 mi SSE 12.7 mph 16.1 mph N/A   Scattered Clouds
2:54 PM 82.4 °F 85.4 °F 68.0 °F 62% 30.05 in 10.0 mi SSE 15.0 mph 23.0 mph N/A   Clear
3:14 PM 82.4 °F 85.4 °F 68.0 °F 62% 30.04 in 10.0 mi South 13.8 mph 19.6 mph N/A   Scattered Clouds
3:34 PM 82.4 °F 84.6 °F 66.2 °F 58% 30.04 in 10.0 mi South 12.7 mph 18.4 mph N/A   Clear
3:54 PM 84.2 °F 87.3 °F 68.0 °F 58% 30.04 in 10.0 mi SSE 11.5 mph 18.4 mph N/A   Clear
4:14 PM 84.2 °F 87.3 °F 68.0 °F 58% 30.03 in 10.0 mi SSE 12.7 mph 19.6 mph N/A   Clear
4:34 PM 84.2 °F 86.6 °F 66.2 °F 55% 30.03 in 10.0 mi SSE 10.4 mph 18.4 mph N/A   Clear
4:54 PM 84.2 °F 86.6 °F 66.2 °F 55% 30.03 in 10.0 mi South 11.5 mph 19.6 mph N/A   Clear
5:14 PM 84.2 °F 87.3 °F 68.0 °F 58% 30.03 in 10.0 mi SSE 12.7 mph - N/A   Clear
5:34 PM 84.2 °F 86.6 °F 66.2 °F 55% 30.03 in 10.0 mi SSE 12.7 mph 19.6 mph N/A   Clear
5:54 PM 82.4 °F 84.6 °F 66.2 °F 58% 30.03 in 10.0 mi SSE 13.8 mph 20.7 mph N/A   Clear
6:14 PM 82.4 °F 84.6 °F 66.2 °F 58% 30.03 in 10.0 mi SSE 12.7 mph 19.6 mph N/A   Clear
6:34 PM 82.4 °F 84.6 °F 66.2 °F 58% 30.03 in 10.0 mi SSE 15.0 mph 20.7 mph N/A   Clear
6:54 PM 82.4 °F 84.6 °F 66.2 °F 58% 30.02 in 10.0 mi SSE 12.7 mph 17.3 mph N/A   Clear
7:14 PM 80.6 °F 82.7 °F 66.2 °F 61% 30.03 in 10.0 mi SSE 10.4 mph 19.6 mph N/A   Clear
7:35 PM 80.6 °F 82.7 °F 66.2 °F 61% 30.03 in 10.0 mi SSE 10.4 mph 16.1 mph N/A   Clear
7:54 PM 78.8 °F - 66.2 °F 65% 30.02 in 10.0 mi SSE 11.5 mph - N/A   Clear
8:14 PM 78.8 °F - 66.2 °F 65% 30.02 in 10.0 mi SSE 11.5 mph 16.1 mph N/A   Clear
8:34 PM 77.0 °F - 66.2 °F 69% 30.03 in 10.0 mi SSE 9.2 mph - N/A   Clear
8:54 PM 75.2 °F - 66.2 °F 73% 30.03 in 10.0 mi SSE 9.2 mph - N/A   Clear
9:14 PM 75.2 °F - 66.2 °F 73% 30.02 in 10.0 mi SSE 11.5 mph - N/A   Clear
9:34 PM 73.4 °F - 66.2 °F 78% 30.03 in 10.0 mi SSE 10.4 mph - N/A   Clear
9:55 PM 73.4 °F - 66.2 °F 78% 30.03 in 10.0 mi SSE 9.2 mph - N/A   Clear
10:14 PM 73.4 °F - 66.2 °F 78% 30.03 in 10.0 mi SSE 10.4 mph 16.1 mph N/A   Clear
10:34 PM 71.6 °F - 64.4 °F 78% 30.04 in 10.0 mi SSE 10.4 mph - N/A   Clear
10:55 PM 71.6 °F - 64.4 °F 78% 30.04 in 10.0 mi SSE 10.4 mph - N/A   Clear
11:14 PM 71.6 °F - 64.4 °F 78% 30.04 in 10.0 mi SSE 9.2 mph - N/A   Clear
11:34 PM 69.8 °F - 64.4 °F 83% 30.04 in 10.0 mi SSE 11.5 mph 16.1 mph N/A   Clear
11:54 PM 69.8 °F - 64.4 °F 83% 30.05 in 10.0 mi SSE 9.2 mph - N/A   Clear